Location: Bottens
(46.6171°N, 6.6605°E)
Time: 11:36:25
(UTC+00:00)

ATLAS 5 CENTAUR R/B - Pass Details

Date: 01 November 2021
Orbit: 497 x 1159 km, 63.4° (Epoch: 25 November)

Event Time Altitude Azimuth Distance (km) Brightness Sun altitude
Rises 18:45:37 0° 315° (NW) 2,910 5.8 -25.8°
Reaches altitude 10° 18:49:23 10° 348° (NNW) 2,151 4.5 -26.4°
Enters shadow 18:51:05 12° 8° (N) 2,096 4.2 -26.7°
